Weather History for Niederrhein, Germany

Change the Weather History Date:

Wednesday, March 6, 2013

  Actual Average Record
Temperature  
Mean Temperature 54 °F -  
Max Temperature 66 °F - - ()
Min Temperature 42 °F - - ()
Degree Days  
Heating Degree Days 11    
Growing Degree Days 4 (Base 50)    
Moisture  
Dew Point 32 °F    
Average Humidity 45    
Maximum Humidity 66    
Minimum Humidity 26    
Precipitation  
Precipitation 0.00 in - - ()
Sea Level Pressure  
Sea Level Pressure 29.60 in    
Wind  
Wind Speed 6 mph ()    
Max Wind Speed 9 mph    
Max Gust Speed -    
T = Trace of Precipitation, MM = Missing Value Source: Averaged Metar Reports

Daily Weather History Graph

Daily Weather History Graph

Search for Another Location

Airport:

Trip Planner

Search our weather history database for the weather conditions in past years. The results will help you decide how hot, cold, wet, or windy it might be!

Date:

Astronomy

Mar. 06, 2013 Rise Set
Actual Time 7:09 AM CET 6:24 PM CET
Civil Twilight 6:36 AM CET 6:58 PM CET
Nautical Twilight 5:57 AM CET 7:36 PM CET
Astronomical Twilight 5:18 AM CET 8:16 PM CET
Moon 3:35 AM CET (3/6) 12:18 PM CET (3/6)
Length of Visible Light 12h 21m
Length of Day
11h 14m
Waning Crescent, 33% of the Moon is Illuminated
Mar 6
Waning Crescent
Mar 11
New
Mar 19
First Quarter
Mar 27
Full
Apr 3
Last Quarter

Hourly Weather History & Observations

Time (CET) Temp. Windchill Dew Point Humidity Pressure Visibility Wind Dir Wind Speed Gust Speed Precip Events Conditions
4:50 AM 44.6 °F 39.7 °F 32.0 °F 61% 29.65 in - SE 9.2 mph - N/A   Clear
5:20 AM 44.6 °F 39.7 °F 32.0 °F 61% 29.65 in - ESE 9.2 mph - N/A   Clear
5:50 AM 44.6 °F 41.4 °F 32.0 °F 61% 29.65 in - ESE 5.8 mph - N/A   Clear
6:20 AM 42.8 °F 40.1 °F 32.0 °F 66% 29.65 in - ESE 4.6 mph - N/A   Clear
6:50 AM 42.8 °F 41.1 °F 32.0 °F 66% 29.65 in - Variable 3.5 mph - N/A   Clear
7:20 AM 42.8 °F 40.1 °F 32.0 °F 66% 29.65 in - ESE 4.6 mph - N/A   Clear
7:50 AM 44.6 °F 41.4 °F 33.8 °F 66% 29.65 in - ESE 5.8 mph - N/A   Clear
8:20 AM 44.6 °F 40.7 °F 33.8 °F 66% 29.65 in - ESE 6.9 mph - N/A   Clear
8:50 AM 46.4 °F 41.9 °F 33.8 °F 62% 29.65 in - SE 9.2 mph - N/A   Clear
9:20 AM 46.4 °F 42.4 °F 33.8 °F 62% 29.65 in - ESE 8.1 mph - N/A   Clear
9:50 AM 48.2 °F - 33.8 °F 58% 29.65 in - ESE 8.1 mph - N/A   Clear
10:20 AM 50.0 °F - 33.8 °F 54% 29.65 in - ESE 8.1 mph - N/A   Clear
10:50 AM 53.6 °F - 32.0 °F 44% 29.62 in - ESE 8.1 mph - N/A   Clear
11:20 AM 57.2 °F - 32.0 °F 38% 29.62 in - ESE 6.9 mph - N/A   Clear
11:50 AM 59.0 °F - 32.0 °F 36% 29.62 in - SE 8.1 mph - N/A   Clear
12:20 PM 60.8 °F - 32.0 °F 34% 29.62 in - East 4.6 mph - N/A   Clear
12:50 PM 62.6 °F - 30.2 °F 30% 29.62 in - East 5.8 mph - N/A   Clear
1:20 PM 64.4 °F - 30.2 °F 28% 29.59 in - East 6.9 mph - N/A   Clear
1:50 PM 62.6 °F - 26.6 °F 26% 29.59 in - ESE 6.9 mph - N/A   Clear
2:20 PM 62.6 °F - 33.8 °F 34% 29.59 in - East 5.8 mph - N/A   Clear
2:50 PM 64.4 °F - 28.4 °F 26% 29.59 in - East 6.9 mph - N/A   Clear
3:20 PM 64.4 °F - 30.2 °F 28% 29.59 in - ENE 5.8 mph - N/A   Clear
3:50 PM 64.4 °F - 30.2 °F 28% 29.59 in - ENE 5.8 mph - N/A   Clear
4:20 PM 66.2 °F - 33.8 °F 30% 29.56 in - NE 4.6 mph - N/A   Clear
4:50 PM 62.6 °F - 33.8 °F 34% 29.56 in - NNE 4.6 mph - N/A   Clear
5:20 PM 62.6 °F - 33.8 °F 34% 29.56 in - NNE 4.6 mph - N/A   Clear
5:50 PM 62.6 °F - 32.0 °F 32% 29.56 in - NE 5.8 mph - N/A   Clear
6:20 PM 60.8 °F - 30.2 °F 31% 29.56 in - NE 6.9 mph - N/A   Clear
6:50 PM 59.0 °F - 32.0 °F 36% 29.56 in - NE 8.1 mph - N/A   Clear
7:20 PM 59.0 °F - 33.8 °F 39% 29.56 in - NE 6.9 mph - N/A   Clear
7:50 PM 57.2 °F - 32.0 °F 38% 29.56 in - NE 6.9 mph - N/A   Clear
8:20 PM 57.2 °F - 32.0 °F 38% 29.56 in - ENE 4.6 mph - N/A   Clear
8:50 PM 57.2 °F - 30.2 °F 36% 29.56 in - NE 5.8 mph - N/A   Clear
9:20 PM 55.4 °F - 30.2 °F 38% 29.56 in - ENE 5.8 mph - N/A   Clear
9:50 PM 53.6 °F - 32.0 °F 44% 29.56 in - ENE 5.8 mph - N/A   Clear
10:20 PM 53.6 °F - 33.8 °F 47% 29.56 in - ENE 6.9 mph - N/A   Clear
10:50 PM 51.8 °F - 33.8 °F 50% 29.56 in - ENE 5.8 mph - N/A   Clear
11:20 PM 50.0 °F - 33.8 °F 54% 29.56 in - ENE 4.6 mph - N/A   Clear
11:50 PM 50.0 °F - 33.8 °F 54% 29.56 in - ENE 4.6 mph - N/A   Clear